N8AAU Weather Reports


time (UTC)temp
C
wind
direction
speed
KPH
gust
KPH
rain 1hr
cm
rain 24hr
cm
rain mn
cm
humidity
%
barometer
mb
20260506122004 7 24 0.0 0.0 0.00 0.25 0.03 63 1010.0
20260506121500 7 24 0.0 0.0 0.00 0.25 0.03 62 1010.0
20260506121004 7 26 0.0 0.0 0.00 0.25 0.03 63 1010.0
20260506120505 7 30 0.0 0.0 0.00 0.25 0.03 63 1010.0
20260506120006 7 24 0.0 6.4 0.00 0.25 0.03 63 1009.8
20260506115504 6 26 0.0 6.4 0.00 0.25 0.03 63 1009.7
20260506115004 6 13 0.0 1.6 0.00 0.25 0.03 62 1009.7
20260506114505 6 9 0.0 1.6 0.00 0.25 0.03 62 1009.6
20260506113500 6 5 0.0 0.0 0.00 0.25 0.03 62 1009.6
20260506113005 6 9 0.0 0.0 0.00 0.25 0.03 62 1009.5
20260506112505 6 5 0.0 0.0 0.00 0.25 0.03 62 1009.4
20260506112003 7 14 0.0 0.0 0.00 0.25 0.03 62 1009.3
20260506111504 7 16 0.0 0.0 0.00 0.25 0.03 61 1009.3
20260506110500 7 24 0.0 9.7 0.03 0.25 0.03 65 1009.2
20260506105004 7 24 0.0 4.8 0.03 0.25 0.03 66 1009.0
20260506104505 7 24 0.0 4.8 0.03 0.25 0.03 66 1008.7
20260506103500 7 24 0.0 1.6 0.03 0.25 0.03 67 1008.5
20260506103005 7 5 0.0 1.6 0.03 0.25 0.03 66 1008.6
20260506102504 7 360 0.0 0.0 0.03 0.25 0.03 66 1008.5
20260506101959 7 355 0.0 0.0 0.03 0.25 0.03 66 1008.5
20260506100959 8 355 0.0 0.0 0.00 0.23 0.00 65 1008.4
20260506100500 8 355 0.0 0.0 0.00 0.23 0.00 65 1008.4
20260506095500 8 26 0.0 4.8 0.00 0.23 0.00 64 1008.3
20260506095000 8 17 0.0 4.8 0.00 0.23 0.00 63 1008.1
20260506093503 8 32 0.0 4.8 0.00 0.23 0.00 62 1008.2
20260506092505 8 304 0.0 0.0 0.00 0.23 0.00 60 1008.3
20260506091000 8 26 0.0 0.0 0.00 0.23 0.00 59 1008.0
20260506090504 8 25 0.0 0.0 0.00 0.23 0.00 59 1007.8
20260506090006 8 20 0.0 0.0 0.00 0.23 0.00 59 1007.8
20260506085459 8 20 0.0 0.0 0.00 0.23 0.00 59 1007.8
20260506085004 8 20 0.0 0.0 0.00 0.23 0.00 58 1007.9
20260506084504 8 22 0.0 0.0 0.00 0.23 0.00 58 1008.0
20260506084000 8 22 0.0 0.0 0.00 0.23 0.00 58 1007.8
20260506083503 8 22 0.0 0.0 0.00 0.23 0.00 57 1007.7
20260506082504 8 22 0.0 0.0 0.00 0.23 0.00 58 1007.6
20260506082004 8 22 0.0 0.0 0.00 0.23 0.00 57 1007.6
20260506081000 8 24 0.0 1.6 0.00 0.23 0.00 56 1007.9
20260506080503 8 24 0.0 0.0 0.00 0.23 0.00 56 1007.8
20260506073005 9 225 0.0 0.0 0.00 0.23 0.00 55 1007.7
20260506072505 9 225 0.0 0.0 0.00 0.23 0.00 55 1007.6
20260506071959 9 225 0.0 0.0 0.00 0.23 0.00 55 1007.6
20260506071500 9 225 0.0 0.0 0.00 0.23 0.00 55 1007.6
20260506071000 9 225 0.0 0.0 0.00 0.23 0.00 55 1007.9
20260506062459 9 225 0.0 0.0 0.00 0.23 0.00 56 1007.8
20260506061958 9 225 0.0 0.0 0.00 0.23 0.00 55 1008.0
20260506060959 9 225 0.0 0.0 0.00 0.23 0.00 56 1007.9
20260506060459 9 225 0.0 0.0 0.00 0.23 0.00 55 1007.9
20260506050958 10 226 0.0 0.0 0.00 0.23 0.00 54 1007.9
20260506044958 10 229 0.0 0.0 0.00 0.23 0.00 53 1007.7
20260506044459 10 228 0.0 0.0 0.00 0.23 0.00 53 1007.7
20260506043958 10 228 0.0 0.0 0.00 0.23 0.00 54 1007.9
20260506043459 10 228 0.0 0.0 0.00 0.23 0.00 53 1007.8
20260506043006 10 228 0.0 0.0 0.00 0.23 0.00 54 1007.7
20260506042005 10 228 0.0 0.0 0.00 0.23 0.00 53 1007.7
20260506041506 10 228 0.0 0.0 0.00 0.23 0.00 52 1007.4
20260506041005 10 228 0.0 0.0 0.00 0.23 0.00 52 1007.6
20260506040505 10 228 0.0 0.0 0.00 0.23 0.00 51 1007.5
20260506040008 10 228 0.0 0.0 0.00 0.23 0.00 51 1007.6
20260506035504 10 228 0.0 0.0 0.00 0.23 0.23 51 1007.7
20260506035005 10 228 0.0 0.0 0.00 0.23 0.23 51 1007.7
20260506034505 10 228 0.0 0.0 0.00 0.23 0.23 50 1007.7
20260506034005 10 228 0.0 0.0 0.00 0.23 0.23 50 1007.8
20260506033504 10 227 0.0 0.0 0.00 0.23 0.23 50 1007.8
20260506032506 10 227 0.0 0.0 0.00 0.23 0.23 49 1007.9
20260506032006 10 227 0.0 0.0 0.00 0.23 0.23 50 1007.9
20260506031505 10 246 0.0 0.0 0.00 0.23 0.23 49 1007.8
20260506031005 10 246 0.0 0.0 0.00 0.23 0.23 48 1007.8
20260506030504 10 246 0.0 0.0 0.00 0.23 0.23 48 1007.7
20260506030005 10 246 0.0 0.0 0.00 0.23 0.23 47 1007.8
20260506025505 10 246 0.0 0.0 0.00 0.23 0.23 47 1007.9
20260506025005 10 246 0.0 0.0 0.00 0.23 0.23 47 1007.9
20260506024505 10 271 0.0 0.0 0.00 0.23 0.23 47 1007.9
20260506024004 10 271 0.0 0.0 0.00 0.23 0.23 46 1007.8
20260506023005 11 223 0.0 0.0 0.00 0.23 0.23 46 1007.7
20260506022505 11 257 0.0 0.0 0.00 0.23 0.23 47 1007.8
20260506021505 11 226 0.0 1.6 0.00 0.23 0.23 47 1007.8
20260506021005 11 227 0.0 1.6 0.00 0.23 0.23 47 1007.8
20260506020504 11 220 0.0 0.0 0.00 0.23 0.23 46 1007.7
20260506020005 11 220 0.0 0.0 0.00 0.23 0.23 46 1007.6
20260506015505 11 220 0.0 0.0 0.00 0.23 0.23 46 1007.6
20260506014506 11 245 0.0 0.0 0.00 0.23 0.23 46 1007.5
20260506013505 11 210 0.0 0.0 0.00 0.23 0.23 45 1007.2
20260506013006 11 221 0.0 0.0 0.00 0.23 0.23 46 1007.3
20260506012505 11 221 0.0 0.0 0.00 0.23 0.23 46 1007.3
20260506012005 11 236 0.0 0.0 0.00 0.23 0.23 46 1007.2
20260506011505 11 254 0.0 0.0 0.00 0.23 0.23 47 1007.2
20260506011005 11 250 0.0 4.8 0.00 0.23 0.23 47 1007.3
20260506010505 11 222 0.0 4.8 0.00 0.23 0.23 48 1007.3
20260506005505 11 223 0.0 0.0 0.00 0.23 0.23 50 1007.2
20260506005006 11 221 0.0 0.0 0.00 0.23 0.23 50 1007.3
20260506004505 11 220 0.0 0.0 0.00 0.23 0.23 50 1007.3
20260506004005 11 200 0.0 0.0 0.00 0.23 0.23 51 1007.2
20260506003504 11 196 0.0 0.0 0.00 0.23 0.23 51 1007.2
20260506003005 11 233 0.0 0.0 0.00 0.23 0.23 50 1007.2
20260506002506 11 233 0.0 1.6 0.00 0.23 0.23 50 1007.0
20260506002005 11 232 0.0 1.6 0.00 0.23 0.23 49 1007.1
20260506001505 11 233 0.0 0.0 0.00 0.23 0.23 50 1007.0
20260506001004 11 231 0.0 1.6 0.00 0.23 0.23 50 1007.0
20260506000504 12 234 0.0 1.6 0.00 0.23 0.23 50 1006.9
20260505235004 12 217 0.0 3.2 0.00 0.23 0.23 51 1006.6
20260505234505 12 252 0.0 0.0 0.00 0.23 0.23 52 1006.6
20260505234005 12 242 0.0 0.0 0.00 0.23 0.23 52 1006.5
20260505233504 12 252 0.0 0.0 0.00 0.23 0.23 51 1006.5
20260505233005 12 252 0.0 0.0 0.00 0.23 0.23 51 1006.4
20260505232505 12 244 0.0 3.2 0.00 0.23 0.23 51 1006.4
20260505232004 12 233 0.0 8.0 0.00 0.23 0.23 52 1006.4
20260505231505 12 240 0.0 8.0 0.00 0.23 0.23 52 1006.3
20260505231004 12 291 0.0 8.0 0.00 0.23 0.23 53 1006.4
20260505230504 12 246 0.0 8.0 0.00 0.23 0.23 54 1006.4
20260505225505 12 240 0.0 8.0 0.00 0.23 0.23 58 1006.4
20260505225005 12 237 0.0 4.8 0.00 0.23 0.23 60 1006.4
20260505224505 12 221 0.0 0.0 0.00 0.23 0.23 61 1006.5
20260505224005 12 225 0.0 0.0 0.00 0.23 0.23 63 1006.6
20260505223504 12 219 1.6 6.4 0.00 0.23 0.23 63 1006.6
20260505223005 12 275 1.6 8.0 0.00 0.23 0.23 64 1006.6
20260505222505 12 267 0.0 0.0 0.00 0.23 0.23 64 1006.6
20260505222005 12 221 0.0 0.0 0.00 0.23 0.23 64 1006.5
20260505221506 12 246 1.6 11.3 0.00 0.23 0.23 64 1006.4
20260505221005 12 238 1.6 12.9 0.00 0.23 0.23 65 1006.5
20260505220504 12 214 1.6 12.9 0.00 0.23 0.23 65 1006.6
20260505220006 12 203 0.0 9.7 0.00 0.23 0.23 65 1006.7
20260505215505 12 227 1.6 9.7 0.00 0.23 0.23 66 1006.7
20260505215005 12 237 1.6 9.7 0.00 0.23 0.23 66 1006.7
20260505214506 12 230 0.0 11.3 0.00 0.23 0.23 66 1006.7
20260505213005 12 217 0.0 1.6 0.00 0.23 0.23 68 1006.6
20260505212504 12 226 0.0 11.3 0.00 0.23 0.23 69 1006.5
20260505212005 12 236 1.6 11.3 0.00 0.23 0.23 67 1006.5
20260505211004 12 233 0.0 11.3 0.00 0.23 0.23 69 1006.5
20260505210504 12 235 0.0 0.0 0.00 0.23 0.23 69 1006.6
20260505205504 12 229 1.6 14.5 0.00 0.23 0.23 69 1006.6
20260505205005 12 229 0.0 8.0 0.00 0.23 0.23 70 1006.7
20260505204505 12 226 3.2 16.1 0.00 0.23 0.23 71 1006.7
20260505203006 11 213 3.2 16.1 0.00 0.23 0.23 72 1006.8
20260505202505 11 209 6.4 16.1 0.00 0.23 0.23 71 1006.8
20260505202004 11 218 6.4 16.1 0.00 0.23 0.23 71 1006.8
20260505201505 11 224 6.4 16.1 0.00 0.23 0.23 71 1006.9
20260505201004 11 219 3.2 16.1 0.00 0.23 0.23 71 1006.8
20260505200504 11 245 3.2 12.9 0.00 0.23 0.23 72 1006.8
20260505200006 11 205 1.6 11.3 0.00 0.23 0.23 73 1006.8
20260505195504 11 233 1.6 9.7 0.00 0.23 0.23 73 1006.8
20260505195005 11 208 1.6 11.3 0.00 0.23 0.23 73 1006.9
20260505194505 11 242 1.6 8.0 0.00 0.23 0.23 73 1006.8
20260505194004 11 236 1.6 12.9 0.00 0.23 0.23 72 1006.9
20260505193504 11 215 3.2 12.9 0.00 0.23 0.23 73 1007.1
20260505193005 11 209 4.8 16.1 0.00 0.23 0.23 74 1007.0
20260505192505 11 208 3.2 16.1 0.00 0.23 0.23 73 1007.0
20260505192003 11 232 3.2 14.5 0.00 0.23 0.23 73 1007.0
20260505191505 11 222 3.2 14.5 0.00 0.23 0.23 75 1007.1
20260505191005 11 235 1.6 14.5 0.00 0.23 0.23 74 1007.2
20260505190505 11 258 1.6 14.5 0.00 0.23 0.23 74 1007.2
20260505190006 11 229 0.0 14.5 0.00 0.23 0.23 76 1007.2
20260505185504 10 250 0.0 14.5 0.00 0.23 0.23 76 1007.1
20260505185004 10 244 0.0 9.7 0.00 0.23 0.23 76 1007.1
20260505184505 10 238 1.6 19.3 0.00 0.23 0.23 76 1007.0
20260505184004 10 256 1.6 19.3 0.00 0.23 0.23 77 1006.9
20260505183505 10 235 1.6 14.5 0.00 0.23 0.23 77 1006.8
20260505183005 10 212 1.6 12.9 0.00 0.23 0.23 78 1006.7
20260505182505 10 238 1.6 19.3 0.00 0.23 0.23 78 1006.7
20260505182005 10 221 0.0 19.3 0.00 0.23 0.23 81 1006.6
20260505181505 10 236 0.0 12.9 0.00 0.23 0.23 81 1006.4
20260505181005 10 210 0.0 12.9 0.03 0.23 0.23 80 1006.5
20260505180006 10 229 1.6 12.9 0.03 0.23 0.23 81 1006.4
20260505175005 10 240 1.6 8.0 0.03 0.23 0.23 83 1006.4
20260505174505 10 240 1.6 9.7 0.03 0.23 0.23 82 1006.4
20260505174005 10 215 0.0 0.0 0.05 0.23 0.23 82 1006.2
20260505173006 10 233 0.0 0.0 0.08 0.23 0.23 81 1006.1
20260505172505 10 213 0.0 1.6 0.10 0.23 0.23 80 1006.2
20260505171506 10 241 0.0 12.9 0.10 0.23 0.23 81 1006.5
20260505170006 11 223 0.0 0.0 0.08 0.20 0.20 80 1006.3
20260505165004 11 209 0.0 0.0 0.08 0.20 0.20 77 1006.8
20260505164505 12 234 0.0 6.4 0.08 0.20 0.20 76 1006.8
20260505164005 12 294 0.0 6.4 0.05 0.18 0.18 73 1006.9
20260505163006 13 294 0.0 6.4 0.03 0.15 0.15 69 1006.5
20260505162500 13 306 0.0 4.8 0.00 0.13 0.13 67 1006.4
20260505162004 13 300 0.0 3.2 0.00 0.13 0.13 66 1006.4
20260505161504 14 324 0.0 6.4 0.00 0.13 0.13 64 1006.3
20260505161004 14 249 0.0 6.4 0.00 0.13 0.13 61 1006.2
20260505160504 14 259 0.0 3.2 0.00 0.13 0.13 59 1006.0
20260505153005 15 238 0.0 8.0 0.00 0.13 0.13 52 1005.5
20260505152000 15 239 1.6 8.0 0.00 0.13 0.13 55 1005.3
20260505151504 15 280 0.0 6.4 0.00 0.13 0.13 53 1005.2
20260505151004 15 248 0.0 3.2 0.00 0.13 0.13 55 1005.0
20260505150500 15 242 0.0 3.2 0.00 0.13 0.13 56 1004.8
20260505140504 16 263 0.0 3.2 0.13 0.13 0.13 55 1004.5
20260505125001 15 243 3.2 9.7 0.00 0.00 0.00 75 1002.7
20260505124505 14 273 1.6 11.3 0.00 0.00 0.00 76 1002.7
20260505123504 14 237 4.8 12.9 0.00 0.00 0.00 78 1002.8
20260505123004 14 225 3.2 12.9 0.00 0.00 0.00 77 1002.8
20260505122500 13 239 4.8 16.1 0.00 0.00 0.00 78 1002.9